Penticton, British Columbia

11:23 PM PDT on September 24, 2016 (GMT -0700)
Penticton

Weather History for CYYF - July, 2013

Change the Weather History Date:

Sunday, July 28, 2013

  Actual Average Record
Temperature  
Mean Temperature 72 °F -  
Max Temperature 84 °F 83 °F 96 °F (1999)
Min Temperature 60 °F 57 °F 50 °F (2008)
Cooling Degree Days 7    
Growing Degree Days 22 (Base 50)    
Moisture  
Dew Point 44 °F    
Average Humidity 34    
Maximum Humidity 48    
Minimum Humidity 17    
Precipitation  
Precipitation 0.00 in - - ()
Sea Level Pressure  
Sea Level Pressure 29.89 in    
Wind  
Wind Speed 9 mph ()    
Max Wind Speed 17 mph    
Max Gust Speed 24 mph    
Visibility 15.0 miles    
Events      
Averages and records for this station are not official NWS values.
T = Trace of Precipitation, MM = Missing Value Source: Averaged Metar Reports

Daily Weather History Graph

Daily Weather History Graph

Search for Another Location

Airport or City:

Trip Planner

Search our weather history database for the weather conditions in past years. The results will help you decide how hot, cold, wet, or windy it might be!

Date:

Astronomy

Jul. 28, 2013 Rise Set
Actual Time 5:24 AM PDT 8:44 PM PDT
Civil Twilight 4:46 AM PDT 9:22 PM PDT
Nautical Twilight 3:54 AM PDT 10:13 PM PDT
Astronomical Twilight 2:46 AM PDT 11:20 PM PDT
Moon 11:22 PM PDT (7/28) 12:56 PM PDT (7/28)
Length of Visible Light 16h 36m
Length of Day
15h 19m
Waning Gibbous, 60% of the Moon is Illuminated
Jul 28
Waning Gibbous
Jul 29
Last Quarter
Aug 6
New
Aug 14
First Quarter
Aug 20
Full

Hourly Weather History & Observations

Time (PDT) Temp. Dew Point Humidity Pressure Visibility Wind Dir Wind Speed Gust Speed Precip Events Conditions
12:00 AM 68.0 °F 41.0 °F 37% 29.88 in 15.0 mi North 9.2 mph - N/A   Clear
1:00 AM 68.0 °F 39.2 °F 35% 29.89 in 15.0 mi North 6.9 mph - N/A   Partly Cloudy
2:00 AM 64.4 °F 39.2 °F 40% 29.90 in 15.0 mi North 8.1 mph - N/A   Partly Cloudy
3:00 AM 62.6 °F 39.2 °F 42% 29.90 in 15.0 mi North 8.1 mph - N/A   Partly Cloudy
4:00 AM 62.6 °F 39.2 °F 42% 29.91 in 15.0 mi North 9.2 mph - N/A   Partly Cloudy
5:00 AM 63 °F 41 °F 33% 29.91 in 15 mi North 9.2 mph - -   Partly Cloudy
5:00 AM 62.6 °F 41.0 °F 45% 29.91 in 15.0 mi North 9.2 mph - N/A   Scattered Clouds
6:00 AM 62.6 °F 42.8 °F 48% 29.93 in 15.0 mi NNW 6.9 mph - N/A   Partly Cloudy
7:00 AM 66.2 °F 44.6 °F 46% 29.94 in 15.0 mi NNW 8.1 mph - N/A   Scattered Clouds
8:00 AM 69.8 °F 48.2 °F 46% 29.94 in 15.0 mi North 10.4 mph - N/A   Scattered Clouds
9:00 AM 73.4 °F 50.0 °F 44% 29.94 in 15.0 mi NNE 9.2 mph - N/A   Scattered Clouds
10:00 AM 75.2 °F 51.8 °F 44% 29.92 in 15.0 mi NNE 11.5 mph - N/A   Scattered Clouds
11:00 AM 77 °F 45 °F 21% 29.91 in 15 mi North 15.0 mph - -  
11:00 AM 77.0 °F 44.6 °F 32% 29.91 in 15.0 mi North 15.0 mph 20.7 mph N/A   Scattered Clouds
12:00 PM 80.6 °F 46.4 °F 30% 29.90 in 15.0 mi North 15.0 mph 21.9 mph N/A   Scattered Clouds
1:00 PM 82.4 °F 44.6 °F 26% 29.88 in 15.0 mi North 17.3 mph 24.2 mph N/A   Partly Cloudy
2:00 PM 82.4 °F 44.6 °F 26% 29.88 in 15.0 mi North 16.1 mph - N/A   Partly Cloudy
3:00 PM 84.2 °F 44.6 °F 25% 29.87 in 15.0 mi North 15.0 mph - N/A   Partly Cloudy
4:00 PM 84.2 °F 46.4 °F 27% 29.86 in 15.0 mi NNW 16.1 mph - N/A   Partly Cloudy
5:00 PM 83 °F 46 °F 17% 29.85 in 15 mi North 16.1 mph - -   Scattered Clouds
5:00 PM 84.2 °F 46.4 °F 27% 29.84 in 15.0 mi North 17.3 mph - N/A   Scattered Clouds
6:00 PM 82.4 °F 44.6 °F 26% 29.84 in 15.0 mi North 12.7 mph - N/A   Mostly Cloudy
7:00 PM 82.4 °F 44.6 °F 26% 29.84 in 15.0 mi NNW 12.7 mph - N/A   Partly Cloudy
8:00 PM 77.0 °F 44.6 °F 32% 29.84 in 15.0 mi NNW 8.1 mph - N/A   Scattered Clouds
9:00 PM 73.4 °F 42.8 °F 33% 29.86 in 15.0 mi NNW 6.9 mph - N/A   Scattered Clouds
10:00 PM 71.6 °F 44.6 °F 38% 29.87 in 15.0 mi North 5.8 mph - N/A   Partly Cloudy
11:00 PM 69 °F 43 °F 27% 29.89 in 15 mi North 6.9 mph - -   Scattered Clouds
11:00 PM 69.8 °F 42.8 °F 38% 29.89 in 15.0 mi North 6.9 mph - N/A   Partly Cloudy